TFL3024 EHRD-LGKP

Flight info

Callsign TFL3024
Flight time N/A
Altitude 37000
Route ARNEM DCT GMH DCT OBEDI DCT OKSIG DCT OSLUD DCT MEDUX UM867 KOGAT DCT TALAS UM749 SKP UN137 NEVRA UT514 TUXEM UN132 KUPIS UN134 TIPAS
Aircraft B738/M-SDE2E3FGHIRWXY/LB1

Departure

Time N/A
Airport Rotterdam The Hague Airport (EHRD)

Arrival

Time 2026-04-22 14:01
Airport Karpathos Airport (LGKP)
Time Latitude Longitude Altitude Speed Heading
2026-04-22 13:22 38.24462 24.48987 36952 ft 487 kts 149°
2026-04-22 13:23 38.21712 24.51507 36979 ft 486 kts 149°
2026-04-22 13:23 38.16087 24.56206 36973 ft 479 kts 159°
2026-04-22 13:24 38.09915 24.59087 36986 ft 471 kts 168°
2026-04-22 13:24 38.03673 24.61633 36975 ft 471 kts 168°
2026-04-22 13:25 37.97482 24.64200 36969 ft 471 kts 168°
2026-04-22 13:25 37.91249 24.66825 36971 ft 471 kts 168°
2026-04-22 13:26 37.85013 24.69461 36971 ft 471 kts 168°
2026-04-22 13:26 37.78793 24.72087 36969 ft 471 kts 168°
2026-04-22 13:27 37.72579 24.74703 36960 ft 470 kts 167°
2026-04-22 13:27 37.66531 24.77802 36964 ft 479 kts 154°
2026-04-22 13:28 37.61213 24.82985 36978 ft 486 kts 142°
2026-04-22 13:28 37.56146 24.88659 36967 ft 486 kts 143°
2026-04-22 13:29 37.51062 24.94285 36935 ft 486 kts 143°
2026-04-22 13:29 37.45964 24.99871 36955 ft 485 kts 143°
2026-04-22 13:30 37.40859 25.05442 36970 ft 485 kts 143°
2026-04-22 13:30 37.35762 25.10993 36970 ft 484 kts 143°
2026-04-22 13:31 37.30672 25.16529 36955 ft 484 kts 143°
2026-04-22 13:31 37.25587 25.22050 36963 ft 483 kts 143°
2026-04-22 13:32 37.20539 25.27521 36946 ft 482 kts 143°
2026-04-22 13:32 37.15453 25.33023 36971 ft 482 kts 143°
2026-04-22 13:33 37.10376 25.38505 36967 ft 482 kts 144°
2026-04-22 13:33 37.05288 25.43988 36970 ft 482 kts 144°
2026-04-22 13:34 37.00221 25.49438 36968 ft 483 kts 144°
2026-04-22 13:34 36.95110 25.54928 36962 ft 484 kts 144°
2026-04-22 13:34 36.92548 25.57674 36723 ft 488 kts 144°
2026-04-22 13:35 36.89964 25.60440 36309 ft 489 kts 144°
2026-04-22 13:35 36.87382 25.63205 35930 ft 486 kts 144°
2026-04-22 13:35 36.84823 25.65945 35543 ft 483 kts 144°
2026-04-22 13:35 36.82269 25.68676 35174 ft 484 kts 144°
2026-04-22 13:36 36.79703 25.71414 34807 ft 485 kts 144°
2026-04-22 13:36 36.77144 25.74142 34448 ft 485 kts 144°
2026-04-22 13:36 36.74577 25.76877 34083 ft 486 kts 144°
2026-04-22 13:36 36.72034 25.79583 33705 ft 486 kts 144°
2026-04-22 13:37 36.69460 25.82321 33308 ft 487 kts 144°
2026-04-22 13:37 36.66872 25.85070 32893 ft 488 kts 143°
2026-04-22 13:37 36.64273 25.87828 32214 ft 494 kts 143°
2026-04-22 13:37 36.61644 25.90613 31543 ft 498 kts 143°
2026-04-22 13:38 36.59007 25.93407 30889 ft 496 kts 143°
2026-04-22 13:38 36.53773 25.98952 29555 ft 491 kts 143°
2026-04-22 13:38 36.51172 26.01703 28834 ft 491 kts 143°
2026-04-22 13:39 36.48607 26.04412 28148 ft 490 kts 143°
2026-04-22 13:39 36.45999 26.07160 27469 ft 494 kts 143°
2026-04-22 13:39 36.43359 26.09940 26818 ft 499 kts 143°
2026-04-22 13:39 36.40705 26.12733 26149 ft 500 kts 143°
2026-04-22 13:40 36.38045 26.15531 25510 ft 500 kts 142°
2026-04-22 13:40 36.35390 26.18322 24872 ft 498 kts 142°
2026-04-22 13:40 36.32763 26.21083 24247 ft 492 kts 142°
2026-04-22 13:40 36.30164 26.23813 23641 ft 484 kts 142°
2026-04-22 13:41 36.27612 26.26491 22952 ft 477 kts 142°
2026-04-22 13:41 36.25093 26.29129 22260 ft 471 kts 142°
2026-04-22 13:41 36.22600 26.31738 21584 ft 466 kts 142°
2026-04-22 13:41 36.20130 26.34319 20919 ft 461 kts 142°
2026-04-22 13:42 36.17695 26.36862 20269 ft 457 kts 142°
2026-04-22 13:42 36.15303 26.39357 19642 ft 453 kts 142°
2026-04-22 13:42 36.12904 26.41858 19017 ft 449 kts 142°
2026-04-22 13:42 36.10524 26.44337 18417 ft 445 kts 142°
2026-04-22 13:43 36.08162 26.46795 17755 ft 442 kts 142°
2026-04-22 13:43 36.05818 26.49233 17068 ft 439 kts 142°
2026-04-22 13:43 36.03488 26.51654 16394 ft 435 kts 142°
2026-04-22 13:43 36.01184 26.54047 15736 ft 431 kts 142°
2026-04-22 13:44 35.98901 26.56417 15106 ft 427 kts 142°
2026-04-22 13:44 35.96637 26.58764 14481 ft 424 kts 142°
2026-04-22 13:44 35.94385 26.61097 13877 ft 420 kts 142°
2026-04-22 13:44 35.92158 26.63403 13322 ft 413 kts 142°
2026-04-22 13:45 35.89980 26.65657 12857 ft 405 kts 142°
2026-04-22 13:45 35.87843 26.67866 12393 ft 399 kts 142°
2026-04-22 13:45 35.85748 26.70030 11944 ft 396 kts 142°
2026-04-22 13:45 35.83647 26.72198 11496 ft 392 kts 142°
2026-04-22 13:46 35.81567 26.74344 11050 ft 384 kts 142°
2026-04-22 13:46 35.79567 26.76407 10708 ft 365 kts 142°
2026-04-22 13:46 35.77674 26.78360 10462 ft 345 kts 142°
2026-04-22 13:46 35.75874 26.80216 10230 ft 328 kts 142°
2026-04-22 13:47 35.74162 26.81977 10001 ft 314 kts 142°
2026-04-22 13:47 35.72514 26.83671 9760 ft 304 kts 142°
2026-04-22 13:47 35.71449 26.84765 9589 ft 300 kts 142°
2026-04-22 13:47 35.69845 26.86410 9380 ft 300 kts 142°
2026-04-22 13:48 35.68241 26.88055 9157 ft 302 kts 142°
2026-04-22 13:48 35.66622 26.89714 8933 ft 303 kts 142°
2026-04-22 13:48 35.65005 26.91372 8713 ft 304 kts 142°
2026-04-22 13:48 35.63387 26.93031 8481 ft 301 kts 142°
2026-04-22 13:49 35.61787 26.94670 8255 ft 297 kts 142°
2026-04-22 13:49 35.60214 26.96282 8029 ft 292 kts 142°
2026-04-22 13:49 35.58654 26.97879 7800 ft 290 kts 142°
2026-04-22 13:49 35.57104 26.99465 7589 ft 289 kts 142°
2026-04-22 13:50 35.55559 27.01044 7375 ft 288 kts 142°
2026-04-22 13:50 35.54020 27.02617 7159 ft 287 kts 142°
2026-04-22 13:50 35.52484 27.04185 7037 ft 287 kts 142°
2026-04-22 13:50 35.50946 27.05756 6995 ft 286 kts 142°
2026-04-22 13:51 35.49430 27.07304 6981 ft 281 kts 142°
2026-04-22 13:51 35.47958 27.08807 6968 ft 277 kts 142°
2026-04-22 13:51 35.46465 27.10328 6819 ft 279 kts 142°
2026-04-22 13:51 35.44970 27.11850 6687 ft 280 kts 142°
2026-04-22 13:52 35.43487 27.13411 6393 ft 282 kts 134°
2026-04-22 13:52 35.42529 27.15473 5940 ft 281 kts 103°
2026-04-22 13:52 35.42422 27.17845 5550 ft 278 kts 84°
2026-04-22 13:52 35.42665 27.20179 5133 ft 274 kts 82°
2026-04-22 13:53 35.42913 27.22472 4802 ft 269 kts 83°
2026-04-22 13:53 35.43149 27.24727 4468 ft 265 kts 83°
2026-04-22 13:53 35.43385 27.26965 4137 ft 265 kts 83°
2026-04-22 13:53 35.43618 27.29216 3826 ft 267 kts 83°
2026-04-22 13:54 35.43847 27.31451 3548 ft 265 kts 83°
2026-04-22 13:54 35.44076 27.33713 3510 ft 269 kts 84°
2026-04-22 13:54 35.44236 27.36004 3471 ft 268 kts 96°
2026-04-22 13:54 35.43573 27.38064 3292 ft 259 kts 135°
2026-04-22 13:55 35.42106 27.39131 3085 ft 243 kts 173°
2026-04-22 13:55 35.40453 27.39243 2895 ft 235 kts 182°
2026-04-22 13:55 35.38849 27.39071 2753 ft 225 kts 193°
2026-04-22 13:55 35.37366 27.38609 2629 ft 217 kts 200°
2026-04-22 13:56 35.35966 27.38007 2500 ft 209 kts 204°
2026-04-22 13:56 35.34636 27.37362 2385 ft 202 kts 204°
2026-04-22 13:56 35.33362 27.36688 2294 ft 198 kts 207°
2026-04-22 13:56 35.32222 27.35774 2271 ft 196 kts 232°
2026-04-22 13:57 35.31692 27.34276 2283 ft 194 kts 262°
2026-04-22 13:57 35.31813 27.32637 2283 ft 198 kts 288°
2026-04-22 13:57 35.32531 27.31211 2289 ft 202 kts 304°
2026-04-22 13:57 35.33356 27.29828 2092 ft 197 kts 302°
2026-04-22 13:58 35.34126 27.28504 1941 ft 184 kts 301°
2026-04-22 13:58 35.34843 27.27270 1771 ft 172 kts 301°
2026-04-22 13:58 35.35514 27.26125 1623 ft 160 kts 301°
2026-04-22 13:58 35.36157 27.25026 1593 ft 154 kts 301°
2026-04-22 13:59 35.36765 27.23987 1575 ft 147 kts 301°
2026-04-22 13:59 35.37367 27.22955 1466 ft 153 kts 301°
2026-04-22 13:59 35.37980 27.21904 1306 ft 150 kts 301°
2026-04-22 13:59 35.38587 27.20867 1094 ft 149 kts 301°
2026-04-22 14:00 35.39182 27.19838 894 ft 147 kts 300°
2026-04-22 14:00 35.39766 27.18793 711 ft 151 kts 299°
2026-04-22 14:00 35.40348 27.17690 558 ft 157 kts 301°
2026-04-22 14:00 35.40971 27.16601 302 ft 157 kts 300°
2026-04-22 14:01 35.41578 27.15516 82 ft 151 kts 302°
2026-04-22 14:01 35.42119 27.14553 42 ft 117 kts 304°
2026-04-22 14:01 35.42502 27.13882 40 ft 71 kts 303°
2026-04-22 14:01 35.42615 27.13679 46 ft 6 kts 305°
2026-04-22 14:02 35.42638 27.13636 48 ft 6 kts 303°
2026-04-22 14:02 35.42665 27.13589 48 ft 8 kts 310°
2026-04-22 14:02 35.42719 27.13553 47 ft 9 kts 319°
2026-04-22 14:02 35.42691 27.13520 47 ft 9 kts 142°
2026-04-22 14:03 35.42658 27.13590 48 ft 10 kts 121°
2026-04-22 14:03 35.42618 27.13668 47 ft 14 kts 123°
2026-04-22 14:03 35.42542 27.13804 41 ft 22 kts 124°
2026-04-22 14:03 35.42450 27.13967 36 ft 22 kts 123°
2026-04-22 14:04 35.42469 27.14072 34 ft 13 kts 57°
2026-04-22 14:04 35.42523 27.14174 33 ft 18 kts 58°
2026-04-22 14:04 35.42601 27.14332 33 ft 26 kts 59°
2026-04-22 14:04 35.42665 27.14463 31 ft 14 kts 59°
2026-04-22 14:05 35.42684 27.14545 30 ft 10 kts 117°
2026-04-22 14:05 35.42630 27.14615 28 ft 12 kts 136°
2026-04-22 14:05 35.42503 27.14774 27 ft 13 kts 135°
2026-04-22 14:06 35.42492 27.14847 28 ft 9 kts 31°
2026-04-22 14:06 35.42549 27.14844 27 ft 7 kts 334°
2026-04-22 14:06 35.42586 27.14804 24 ft 7 kts 314°
2026-04-22 14:06 35.42602 27.14783 24 ft 0 kts 313°